| time (UTC) | temp F | wind direction | speed MPH | gust MPH | rain 1hr in | rain 24hr in | rain mn in | humidity % | barometer mb |
| 20260509223059 | 86 | 104 | 0.0 | 10.0 | 0.00 | 0.31 | 0.00 | 34 | 1006.3 |
| 20260509221557 | 87 | 127 | 1.0 | 8.0 | 0.00 | 0.31 | 0.00 | 33 | 1006.4 |
| 20260509220055 | 86 | 231 | 0.0 | 8.0 | 0.00 | 0.31 | 0.00 | 34 | 1006.6 |
| 20260509214555 | 87 | 100 | 0.0 | 7.0 | 0.00 | 0.31 | 0.00 | 32 | 1006.6 |
| 20260509213107 | 87 | 115 | 2.0 | 6.0 | 0.00 | 0.31 | 0.00 | 32 | 1006.7 |
| 20260509211612 | 87 | 233 | 2.0 | 5.0 | 0.00 | 0.31 | 0.00 | 30 | 1006.8 |
| 20260509210056 | 87 | 185 | 0.0 | 6.0 | 0.00 | 0.31 | 0.00 | 33 | 1007.1 |
| 20260509204558 | 86 | 122 | 0.0 | 7.0 | 0.00 | 0.31 | 0.00 | 36 | 1007.3 |
| 20260509203055 | 86 | 211 | 1.0 | 5.0 | 0.00 | 0.31 | 0.00 | 33 | 1007.3 |
| 20260509201541 | 86 | 213 | 2.0 | 7.0 | 0.00 | 0.31 | 0.00 | 34 | 1007.5 |
| 20260509200040 | 85 | 103 | 1.0 | 6.0 | 0.00 | 0.31 | 0.00 | 38 | 1007.7 |
| 20260509194539 | 85 | 359 | 0.0 | 4.0 | 0.00 | 0.31 | 0.00 | 38 | 1008.0 |
| 20260509193035 | 85 | 345 | 1.0 | 4.0 | 0.00 | 0.31 | 0.00 | 38 | 1008.1 |
| 20260509191533 | 84 | 230 | 2.0 | 6.0 | 0.00 | 0.31 | 0.00 | 41 | 1008.3 |
| 20260509190041 | 84 | 120 | 1.0 | 5.0 | 0.00 | 0.31 | 0.00 | 43 | 1008.4 |
| 20260509184530 | 84 | 184 | 0.0 | 3.0 | 0.00 | 0.31 | 0.00 | 42 | 1008.6 |
| 20260509183033 | 84 | 242 | 1.0 | 5.0 | 0.00 | 0.31 | 0.00 | 39 | 1008.8 |
| 20260509181528 | 84 | 124 | 0.0 | 4.0 | 0.00 | 0.31 | 0.00 | 40 | 1008.9 |
| 20260509180025 | 83 | 114 | 0.0 | 3.0 | 0.00 | 0.31 | 0.00 | 42 | 1009.1 |
| 20260509174524 | 82 | 224 | 1.0 | 5.0 | 0.00 | 0.31 | 0.00 | 43 | 1009.5 |
| 20260509173019 | 81 | 224 | 0.0 | 4.0 | 0.00 | 0.31 | 0.00 | 47 | 1009.7 |
| 20260509171518 | 80 | 182 | 1.0 | 5.0 | 0.00 | 0.31 | 0.00 | 47 | 1010.0 |
| 20260509170015 | 80 | 223 | 1.0 | 6.0 | 0.00 | 0.31 | 0.00 | 49 | 1010.2 |
| 20260509164512 | 79 | 114 | 1.0 | 6.0 | 0.00 | 0.31 | 0.00 | 49 | 1010.2 |
| 20260509163010 | 78 | 221 | 2.0 | 7.0 | 0.00 | 0.31 | 0.00 | 49 | 1010.3 |
| 20260509161508 | 78 | 244 | 1.0 | 4.0 | 0.00 | 0.31 | 0.00 | 55 | 1010.2 |
| 20260509160006 | 77 | 214 | 2.0 | 7.0 | 0.00 | 0.31 | 0.00 | 60 | 1010.3 |
| 20260509154503 | 77 | 221 | 0.0 | 5.0 | 0.00 | 0.31 | 0.00 | 58 | 1010.3 |
| 20260509153102 | 75 | 221 | 1.0 | 6.0 | 0.00 | 0.31 | 0.00 | 59 | 1010.1 |
| 20260509151557 | 74 | 94 | 0.0 | 3.0 | 0.00 | 0.31 | 0.00 | 59 | 1010.3 |
| 20260509150051 | 72 | 129 | 0.0 | 4.0 | 0.00 | 0.31 | 0.00 | 73 | 1010.2 |
| 20260509144547 | 71 | 21 | 1.0 | 3.0 | 0.00 | 0.31 | 0.00 | 79 | 1009.9 |
| 20260509143050 | 69 | 62 | 0.0 | 3.0 | 0.00 | 0.31 | 0.00 | 82 | 1009.9 |
| 20260509141544 | 69 | 34 | 1.0 | 3.0 | 0.00 | 0.31 | 0.00 | 84 | 1010.0 |
| 20260509140039 | 67 | 221 | 0.0 | 0.0 | 0.00 | 0.31 | 0.00 | 87 | 1010.0 |
| 20260509134538 | 65 | 221 | 0.0 | 0.0 | 0.00 | 0.31 | 0.00 | 91 | 1010.0 |
| 20260509133029 | 63 | 221 | 0.0 | 0.0 | 0.00 | 0.31 | 0.00 | 92 | 1009.9 |
| 20260509131530 | 62 | 221 | 0.0 | 0.0 | 0.00 | 0.31 | 0.00 | 94 | 1009.7 |
| 20260509130024 | 61 | 221 | 0.0 | 0.0 | 0.00 | 0.31 | 0.00 | 96 | 1009.4 |
| 20260509124523 | 59 | 221 | 0.0 | 0.0 | 0.00 | 0.31 | 0.00 | 96 | 1009.4 |
| 20260509123023 | 59 | 221 | 0.0 | 0.0 | 0.00 | 0.31 | 0.00 | 96 | 1009.2 |
| 20260509121528 | 58 | 221 | 0.0 | 0.0 | 0.00 | 0.31 | 0.00 | 96 | 1009.2 |
| 20260509120022 | 58 | 221 | 0.0 | 0.0 | 0.00 | 0.31 | 0.00 | 96 | 1009.2 |
| 20260509114521 | 58 | 221 | 0.0 | 0.0 | 0.00 | 0.31 | 0.00 | 96 | 1008.8 |
| 20260509113021 | 57 | 221 | 0.0 | 0.0 | 0.00 | 0.31 | 0.00 | 96 | 1008.7 |
| 20260509111520 | 57 | 221 | 0.0 | 0.0 | 0.00 | 0.31 | 0.00 | 96 | 1008.5 |
| 20260509110018 | 57 | 221 | 0.0 | 0.0 | 0.00 | 0.31 | 0.00 | 96 | 1008.5 |
| 20260509104518 | 58 | 221 | 0.0 | 0.0 | 0.00 | 0.31 | 0.00 | 96 | 1008.4 |
| 20260509103016 | 58 | 221 | 0.0 | 0.0 | 0.00 | 0.31 | 0.00 | 96 | 1008.4 |
| 20260509101515 | 58 | 221 | 0.0 | 0.0 | 0.00 | 0.31 | 0.00 | 96 | 1008.6 |
| 20260509100014 | 58 | 221 | 0.0 | 0.0 | 0.00 | 0.31 | 0.00 | 96 | 1008.9 |
| 20260509094511 | 58 | 221 | 0.0 | 0.0 | 0.00 | 0.31 | 0.00 | 96 | 1009.0 |
| 20260509093010 | 58 | 221 | 0.0 | 0.0 | 0.00 | 0.31 | 0.00 | 96 | 1009.1 |
| 20260509091518 | 59 | 221 | 0.0 | 0.0 | 0.00 | 0.31 | 0.00 | 97 | 1009.1 |
| 20260509090008 | 59 | 221 | 0.0 | 0.0 | 0.00 | 0.31 | 0.00 | 97 | 1008.9 |
| 20260509084517 | 59 | 221 | 0.0 | 0.0 | 0.00 | 0.31 | 0.00 | 97 | 1009.0 |
| 20260509083007 | 59 | 221 | 0.0 | 0.0 | 0.00 | 0.31 | 0.00 | 97 | 1008.9 |
| 20260509081508 | 59 | 221 | 0.0 | 0.0 | 0.00 | 0.31 | 0.00 | 97 | 1008.9 |
| 20260509080004 | 59 | 221 | 0.0 | 0.0 | 0.00 | 0.31 | 0.00 | 97 | 1009.2 |
| 20260509074502 | 60 | 221 | 0.0 | 0.0 | 0.00 | 0.31 | 0.00 | 97 | 1009.2 |
| 20260509073216 | 60 | 221 | 0.0 | 0.0 | 0.00 | 0.31 | 0.00 | 97 | 1009.4 |
| 20260509071559 | 60 | 221 | 0.0 | 0.0 | 0.00 | 0.31 | 0.00 | 97 | 1009.4 |
| 20260509070100 | 60 | 221 | 0.0 | 0.0 | 0.00 | 0.31 | 0.00 | 97 | 1009.5 |
| 20260509064556 | 61 | 221 | 0.0 | 0.0 | 0.00 | 0.31 | 0.00 | 97 | 1009.5 |
| 20260509063055 | 61 | 190 | 0.0 | 0.0 | 0.00 | 0.31 | 0.00 | 97 | 1009.4 |
| 20260509061557 | 61 | 190 | 0.0 | 0.0 | 0.00 | 0.31 | 0.00 | 97 | 1009.7 |
| 20260509060052 | 61 | 31 | 0.0 | 0.0 | 0.00 | 0.31 | 0.00 | 97 | 1009.7 |
| 20260509054559 | 61 | 31 | 0.0 | 0.0 | 0.00 | 0.31 | 0.00 | 97 | 1009.7 |
| 20260509053053 | 62 | 31 | 0.0 | 0.0 | 0.00 | 0.31 | 0.00 | 97 | 1009.7 |
| 20260509051558 | 61 | 31 | 0.0 | 0.0 | 0.00 | 0.31 | 0.00 | 97 | 1009.6 |
| 20260509050047 | 61 | 31 | 0.0 | 2.0 | 0.00 | 0.31 | 0.00 | 97 | 1009.4 |
| 20260509044547 | 61 | 18 | 0.0 | 3.0 | 0.00 | 0.31 | 0.31 | 97 | 1009.3 |
| 20260509043053 | 62 | 195 | 0.0 | 1.0 | 0.00 | 0.31 | 0.31 | 97 | 1009.3 |
| 20260509041546 | 62 | 195 | 0.0 | 0.0 | 0.00 | 0.31 | 0.31 | 97 | 1008.7 |
| 20260509040054 | 62 | 195 | 0.0 | 0.0 | 0.00 | 0.31 | 0.31 | 97 | 1008.9 |
| 20260509034544 | 62 | 195 | 0.0 | 0.0 | 0.00 | 0.31 | 0.31 | 97 | 1008.6 |
| 20260509033045 | 62 | 195 | 0.0 | 0.0 | 0.00 | 0.31 | 0.31 | 97 | 1008.5 |
| 20260509031544 | 62 | 195 | 0.0 | 0.0 | 0.00 | 0.31 | 0.31 | 97 | 1008.1 |
| 20260509030045 | 62 | 195 | 0.0 | 0.0 | 0.00 | 0.31 | 0.31 | 97 | 1007.8 |
| 20260509024545 | 62 | 195 | 0.0 | 0.0 | 0.00 | 0.31 | 0.31 | 97 | 1007.5 |
| 20260509023046 | 62 | 195 | 0.0 | 0.0 | 0.00 | 0.31 | 0.31 | 97 | 1007.2 |
| 20260509021543 | 63 | 195 | 0.0 | 0.0 | 0.00 | 0.31 | 0.31 | 97 | 1007.3 |
| 20260509020044 | 62 | 195 | 0.0 | 2.0 | 0.00 | 0.31 | 0.31 | 96 | 1007.1 |
| 20260509014541 | 63 | 214 | 1.0 | 3.0 | 0.00 | 0.31 | 0.31 | 96 | 1006.9 |
| 20260509013054 | 63 | 211 | 0.0 | 0.0 | 0.00 | 0.31 | 0.31 | 96 | 1006.2 |
| 20260509011541 | 64 | 211 | 0.0 | 0.0 | 0.00 | 0.31 | 0.31 | 96 | 1006.2 |
| 20260509010041 | 64 | 211 | 0.0 | 1.0 | 0.00 | 0.31 | 0.31 | 96 | 1006.2 |
| 20260509004601 | 64 | 210 | 0.0 | 2.0 | 0.00 | 0.31 | 0.31 | 96 | 1006.1 |
| 20260509003044 | 64 | 207 | 1.0 | 7.0 | 0.00 | 0.31 | 0.31 | 96 | 1005.4 |
| 20260509001539 | 64 | 203 | 0.0 | 0.0 | 0.00 | 0.31 | 0.31 | 96 | 1004.6 |
| 20260509000037 | 63 | 203 | 0.0 | 2.0 | 0.03 | 0.31 | 0.31 | 95 | 1004.5 |
| 20260508234538 | 65 | 185 | 1.0 | 6.0 | 0.17 | 0.31 | 0.31 | 96 | 1004.9 |
| 20260508233036 | 63 | 233 | 0.0 | 3.0 | 0.31 | 0.31 | 0.31 | 96 | 1004.6 |
| 20260508231535 | 63 | 97 | 0.0 | 1.0 | 0.31 | 0.31 | 0.31 | 95 | 1004.8 |
| 20260508230049 | 62 | 255 | 0.0 | 11.0 | 0.28 | 0.28 | 0.28 | 93 | 1005.2 |
| 20260508224531 | 69 | 34 | 6.0 | 17.0 | 0.08 | 0.08 | 0.08 | 73 | 1006.3 |